| time (UTC) | temp C | wind direction | speed KPH | gust KPH | rain 1hr cm | rain 24hr cm | rain mn cm | humidity % | barometer mb |
| 20260503004312 | 17 | 314 | 0.0 | 4.8 | 0.00 | 0.00 | 0.00 | 40 | 1009.5 |
| 20260503003810 | 17 | 237 | 3.2 | 11.3 | 0.00 | 0.00 | 0.00 | 39 | 1009.5 |
| 20260503003306 | 17 | 262 | 3.2 | 6.4 | 0.00 | 0.00 | 0.00 | 42 | 1009.4 |
| 20260503002803 | 17 | 253 | 1.6 | 3.2 | 0.00 | 0.00 | 0.00 | 41 | 1009.5 |
| 20260503002300 | 17 | 241 | 0.0 | 1.6 | 0.00 | 0.00 | 0.00 | 40 | 1009.6 |
| 20260503001756 | 17 | 289 | 4.8 | 4.8 | 0.00 | 0.00 | 0.00 | 39 | 1009.8 |
| 20260503001253 | 16 | 297 | 3.2 | 11.3 | 0.00 | 0.00 | 0.00 | 41 | 1009.8 |
| 20260503000751 | 16 | 303 | 4.8 | 6.4 | 0.00 | 0.00 | 0.00 | 41 | 1009.9 |
| 20260503000248 | 17 | 175 | 1.6 | 3.2 | 0.00 | 0.00 | 0.00 | 40 | 1009.9 |
| 20260502235745 | 17 | 241 | 0.0 | 1.6 | 0.00 | 0.00 | 0.00 | 40 | 1010.0 |
| 20260502235243 | 17 | 249 | 0.0 | 1.6 | 0.00 | 0.00 | 0.00 | 39 | 1009.9 |
| 20260502234738 | 17 | 106 | 3.2 | 3.2 | 0.00 | 0.00 | 0.00 | 39 | 1010.0 |
| 20260502234236 | 17 | 228 | 0.0 | 0.0 | 0.00 | 0.00 | 0.00 | 40 | 1009.9 |
| 20260502233732 | 17 | 267 | 3.2 | 4.8 | 0.00 | 0.00 | 0.00 | 39 | 1010.0 |
| 20260502233229 | 17 | 232 | 3.2 | 4.8 | 0.00 | 0.00 | 0.00 | 39 | 1009.9 |
| 20260502232724 | 17 | 269 | 6.4 | 6.4 | 0.00 | 0.00 | 0.00 | 38 | 1010.3 |
| 20260502232222 | 17 | 293 | 3.2 | 6.4 | 0.00 | 0.00 | 0.00 | 40 | 1010.2 |
| 20260502231718 | 17 | 218 | 11.3 | 16.1 | 0.00 | 0.00 | 0.00 | 38 | 1010.5 |
| 20260502231216 | 17 | 246 | 4.8 | 14.5 | 0.00 | 0.00 | 0.00 | 38 | 1010.4 |
| 20260502230715 | 17 | 278 | 8.0 | 12.9 | 0.00 | 0.00 | 0.00 | 37 | 1010.5 |
| 20260502230213 | 17 | 249 | 1.6 | 3.2 | 0.00 | 0.00 | 0.00 | 38 | 1010.5 |
| 20260502225708 | 17 | 254 | 1.6 | 22.5 | 0.00 | 0.00 | 0.00 | 37 | 1010.5 |
| 20260502225205 | 17 | 261 | 3.2 | 4.8 | 0.00 | 0.00 | 0.00 | 38 | 1010.6 |
| 20260502224701 | 17 | 226 | 4.8 | 9.7 | 0.00 | 0.00 | 0.00 | 37 | 1010.6 |
| 20260502224159 | 17 | 194 | 1.6 | 1.6 | 0.00 | 0.00 | 0.00 | 38 | 1010.7 |
| 20260502223656 | 17 | 232 | 4.8 | 9.7 | 0.00 | 0.00 | 0.00 | 37 | 1010.7 |
| 20260502223154 | 17 | 214 | 0.0 | 3.2 | 0.00 | 0.00 | 0.00 | 39 | 1010.8 |
| 20260502222652 | 17 | 233 | 9.7 | 14.5 | 0.00 | 0.00 | 0.00 | 36 | 1010.7 |
| 20260502222148 | 17 | 225 | 0.0 | 3.2 | 0.00 | 0.00 | 0.00 | 40 | 1010.6 |
| 20260502221643 | 17 | 259 | 0.0 | 4.8 | 0.00 | 0.00 | 0.00 | 38 | 1010.7 |
| 20260502221141 | 17 | 243 | 3.2 | 9.7 | 0.00 | 0.00 | 0.00 | 38 | 1010.6 |
| 20260502220637 | 17 | 238 | 4.8 | 9.7 | 0.00 | 0.00 | 0.00 | 38 | 1010.8 |
| 20260502220133 | 17 | 312 | 1.6 | 9.7 | 0.00 | 0.00 | 0.00 | 39 | 1010.6 |
| 20260502215631 | 17 | 220 | 6.4 | 11.3 | 0.00 | 0.00 | 0.00 | 36 | 1010.8 |
| 20260502215127 | 17 | 210 | 0.0 | 6.4 | 0.00 | 0.00 | 0.00 | 38 | 1011.0 |
| 20260502214625 | 17 | 220 | 0.0 | 4.8 | 0.00 | 0.00 | 0.00 | 38 | 1011.0 |
| 20260502214122 | 17 | 218 | 0.0 | 4.8 | 0.00 | 0.00 | 0.00 | 36 | 1011.1 |
| 20260502213619 | 17 | 231 | 3.2 | 14.5 | 0.00 | 0.00 | 0.00 | 37 | 1011.2 |
| 20260502213116 | 17 | 263 | 8.0 | 12.9 | 0.00 | 0.00 | 0.00 | 37 | 1011.2 |
| 20260502212615 | 17 | 258 | 8.0 | 11.3 | 0.00 | 0.00 | 0.00 | 37 | 1011.2 |
| 20260502212113 | 17 | 252 | 3.2 | 6.4 | 0.00 | 0.00 | 0.00 | 37 | 1011.5 |
| 20260502211608 | 17 | 294 | 1.6 | 11.3 | 0.00 | 0.00 | 0.00 | 39 | 1011.7 |
| 20260502211105 | 17 | 244 | 3.2 | 12.9 | 0.00 | 0.00 | 0.00 | 35 | 1011.7 |
| 20260502210603 | 18 | 302 | 4.8 | 11.3 | 0.00 | 0.00 | 0.00 | 36 | 1011.7 |
| 20260502210059 | 18 | 256 | 8.0 | 17.7 | 0.00 | 0.00 | 0.00 | 34 | 1011.9 |
| 20260502205555 | 18 | 264 | 3.2 | 9.7 | 0.00 | 0.00 | 0.00 | 34 | 1011.7 |
| 20260502205053 | 17 | 227 | 6.4 | 16.1 | 0.00 | 0.00 | 0.00 | 34 | 1012.2 |
| 20260502204549 | 17 | 119 | 4.8 | 14.5 | 0.00 | 0.00 | 0.00 | 35 | 1012.0 |
| 20260502204047 | 17 | 251 | 4.8 | 17.7 | 0.00 | 0.00 | 0.00 | 35 | 1012.3 |
| 20260502203544 | 17 | 213 | 12.9 | 17.7 | 0.00 | 0.00 | 0.00 | 33 | 1012.5 |
| 20260502203041 | 17 | 256 | 6.4 | 11.3 | 0.00 | 0.00 | 0.00 | 34 | 1012.3 |
| 20260502202537 | 17 | 290 | 11.3 | 16.1 | 0.00 | 0.00 | 0.00 | 34 | 1012.6 |
| 20260502202036 | 17 | 241 | 9.7 | 14.5 | 0.00 | 0.00 | 0.00 | 34 | 1012.9 |
| 20260502201531 | 17 | 237 | 6.4 | 12.9 | 0.00 | 0.00 | 0.00 | 36 | 1012.7 |
| 20260502201029 | 17 | 209 | 6.4 | 11.3 | 0.00 | 0.00 | 0.00 | 35 | 1012.8 |
| 20260502200524 | 17 | 220 | 8.0 | 14.5 | 0.00 | 0.00 | 0.00 | 36 | 1012.9 |
| 20260502200022 | 17 | 257 | 8.0 | 11.3 | 0.00 | 0.00 | 0.00 | 35 | 1013.0 |
| 20260502195520 | 16 | 203 | 3.2 | 9.7 | 0.00 | 0.00 | 0.00 | 35 | 1013.1 |
| 20260502195015 | 16 | 204 | 4.8 | 6.4 | 0.00 | 0.00 | 0.00 | 36 | 1013.2 |
| 20260502194512 | 16 | 294 | 9.7 | 12.9 | 0.00 | 0.00 | 0.00 | 34 | 1013.3 |
| 20260502194008 | 16 | 247 | 11.3 | 22.5 | 0.00 | 0.00 | 0.00 | 36 | 1013.3 |
| 20260502193506 | 16 | 246 | 6.4 | 17.7 | 0.00 | 0.00 | 0.00 | 35 | 1013.5 |
| 20260502193001 | 16 | 241 | 14.5 | 20.9 | 0.00 | 0.00 | 0.00 | 35 | 1013.5 |
| 20260502192458 | 16 | 186 | 4.8 | 17.7 | 0.00 | 0.00 | 0.00 | 38 | 1013.7 |
| 20260502191955 | 16 | 132 | 11.3 | 14.5 | 0.00 | 0.00 | 0.00 | 35 | 1013.7 |
| 20260502191452 | 16 | 194 | 9.7 | 16.1 | 0.00 | 0.00 | 0.00 | 36 | 1014.0 |
| 20260502190950 | 15 | 132 | 8.0 | 11.3 | 0.00 | 0.00 | 0.00 | 36 | 1014.2 |
| 20260502190447 | 16 | 151 | 6.4 | 14.5 | 0.00 | 0.00 | 0.00 | 35 | 1014.2 |
| 20260502185943 | 16 | 192 | 9.7 | 16.1 | 0.00 | 0.00 | 0.00 | 35 | 1014.0 |
| 20260502185439 | 16 | 146 | 4.8 | 12.9 | 0.00 | 0.00 | 0.00 | 36 | 1014.2 |
| 20260502184936 | 16 | 162 | 4.8 | 9.7 | 0.00 | 0.00 | 0.00 | 39 | 1014.4 |
| 20260502184431 | 16 | 220 | 3.2 | 9.7 | 0.00 | 0.00 | 0.00 | 37 | 1014.5 |
| 20260502183928 | 15 | 263 | 6.4 | 11.3 | 0.00 | 0.00 | 0.00 | 35 | 1014.7 |
| 20260502183424 | 15 | 279 | 4.8 | 14.5 | 0.00 | 0.00 | 0.00 | 36 | 1014.7 |
| 20260502182920 | 15 | 228 | 8.0 | 16.1 | 0.00 | 0.00 | 0.00 | 36 | 1014.5 |
| 20260502182416 | 15 | 217 | 3.2 | 6.4 | 0.00 | 0.00 | 0.00 | 37 | 1014.6 |
| 20260502181912 | 15 | 164 | 4.8 | 12.9 | 0.00 | 0.00 | 0.00 | 35 | 1014.8 |
| 20260502181411 | 15 | 254 | 3.2 | 16.1 | 0.00 | 0.00 | 0.00 | 38 | 1015.0 |
| 20260502180909 | 15 | 234 | 16.1 | 17.7 | 0.00 | 0.00 | 0.00 | 37 | 1015.1 |
| 20260502180406 | 15 | 107 | 3.2 | 14.5 | 0.00 | 0.00 | 0.00 | 39 | 1015.1 |
| 20260502170324 | 14 | 291 | 6.4 | 11.3 | 0.00 | 0.00 | 0.00 | 39 | 1015.9 |
| 20260502164312 | 13 | 329 | 6.4 | 6.4 | 0.00 | 0.00 | 0.00 | 38 | 1016.3 |
| 20260502163808 | 13 | 205 | 1.6 | 11.3 | 0.00 | 0.00 | 0.00 | 41 | 1016.3 |
| 20260502163304 | 13 | 235 | 6.4 | 9.7 | 0.00 | 0.00 | 0.00 | 38 | 1016.5 |
| 20260502162801 | 13 | 218 | 6.4 | 12.9 | 0.00 | 0.00 | 0.00 | 37 | 1016.4 |
| 20260502162258 | 13 | 28 | 6.4 | 12.9 | 0.00 | 0.00 | 0.00 | 39 | 1016.4 |
| 20260502161755 | 13 | 264 | 3.2 | 9.7 | 0.00 | 0.00 | 0.00 | 38 | 1016.6 |
| 20260502161251 | 13 | 291 | 4.8 | 9.7 | 0.00 | 0.00 | 0.00 | 37 | 1016.6 |
| 20260502160749 | 12 | 291 | 6.4 | 11.3 | 0.00 | 0.00 | 0.00 | 37 | 1016.7 |
| 20260502160248 | 13 | 197 | 4.8 | 11.3 | 0.00 | 0.00 | 0.00 | 39 | 1016.9 |
| 20260502152217 | 12 | 317 | 6.4 | 9.7 | 0.00 | 0.00 | 0.00 | 39 | 1017.0 |
| 20260502151715 | 12 | 300 | 6.4 | 11.3 | 0.00 | 0.00 | 0.00 | 39 | 1017.1 |
| 20260502151212 | 11 | 257 | 4.8 | 16.1 | 0.00 | 0.00 | 0.00 | 43 | 1017.3 |
| 20260502150709 | 11 | 224 | 4.8 | 16.1 | 0.00 | 0.00 | 0.00 | 43 | 1017.3 |
| 20260502150206 | 11 | 209 | 6.4 | 14.5 | 0.00 | 0.00 | 0.00 | 44 | 1017.2 |
| 20260502140129 | 10 | 306 | 3.2 | 4.8 | 0.00 | 0.00 | 0.00 | 50 | 1017.9 |
| 20260502130554 | 6 | 264 | 1.6 | 4.8 | 0.00 | 0.00 | 0.00 | 60 | 1018.0 |
| 20260502123538 | 6 | 327 | 1.6 | 3.2 | 0.00 | 0.00 | 0.00 | 65 | 1017.9 |
| 20260502123034 | 6 | 240 | 1.6 | 3.2 | 0.00 | 0.00 | 0.00 | 65 | 1017.7 |
| 20260502122531 | 6 | 230 | 1.6 | 1.6 | 0.00 | 0.00 | 0.00 | 64 | 1017.9 |
| 20260502122028 | 6 | 213 | 1.6 | 3.2 | 0.00 | 0.00 | 0.00 | 65 | 1017.7 |
| 20260502121525 | 6 | 241 | 1.6 | 3.2 | 0.00 | 0.00 | 0.00 | 64 | 1017.7 |
| 20260502121023 | 6 | 210 | 0.0 | 0.0 | 0.00 | 0.00 | 0.00 | 64 | 1017.7 |
| 20260502120519 | 6 | 235 | 0.0 | 1.6 | 0.00 | 0.00 | 0.00 | 63 | 1017.8 |
| 20260502115514 | 5 | 198 | 0.0 | 0.0 | 0.00 | 0.00 | 0.00 | 67 | 1017.7 |
| 20260502115009 | 3 | 198 | 0.0 | 0.0 | 0.00 | 0.00 | 0.00 | 72 | 1017.9 |
| 20260502114506 | 3 | 198 | 0.0 | 0.0 | 0.00 | 0.00 | 0.00 | 72 | 1017.7 |
| 20260502114003 | 2 | 223 | 0.0 | 1.6 | 0.00 | 0.00 | 0.00 | 76 | 1017.8 |
| 20260502113500 | 2 | 202 | 0.0 | 0.0 | 0.00 | 0.00 | 0.00 | 76 | 1017.6 |
| 20260502112959 | 2 | 203 | 0.0 | 0.0 | 0.00 | 0.00 | 0.00 | 77 | 1017.6 |
| 20260502112456 | 1 | 202 | 0.0 | 0.0 | 0.00 | 0.00 | 0.00 | 78 | 1017.5 |
| 20260502111954 | 1 | 202 | 0.0 | 0.0 | 0.00 | 0.00 | 0.00 | 78 | 1017.6 |
| 20260502111451 | 1 | 202 | 0.0 | 0.0 | 0.00 | 0.00 | 0.00 | 78 | 1017.6 |
| 20260502110948 | 1 | 202 | 0.0 | 0.0 | 0.00 | 0.00 | 0.00 | 76 | 1017.6 |
| 20260502110446 | 2 | 202 | 0.0 | 0.0 | 0.00 | 0.00 | 0.00 | 76 | 1017.5 |
| 20260502105943 | 1 | 202 | 0.0 | 0.0 | 0.00 | 0.00 | 0.00 | 77 | 1017.3 |
| 20260502105440 | 1 | 203 | 0.0 | 0.0 | 0.00 | 0.00 | 0.00 | 77 | 1017.5 |
| 20260502104938 | 2 | 203 | 0.0 | 0.0 | 0.00 | 0.00 | 0.00 | 75 | 1017.5 |
| 20260502104435 | 2 | 203 | 0.0 | 0.0 | 0.00 | 0.00 | 0.00 | 75 | 1017.3 |
| 20260502103932 | 2 | 203 | 0.0 | 0.0 | 0.00 | 0.00 | 0.00 | 74 | 1017.5 |
| 20260502103430 | 2 | 203 | 0.0 | 0.0 | 0.00 | 0.00 | 0.00 | 75 | 1017.6 |
| 20260502102927 | 1 | 205 | 0.0 | 0.0 | 0.00 | 0.00 | 0.00 | 76 | 1017.8 |
| 20260502102423 | 2 | 205 | 0.0 | 0.0 | 0.00 | 0.00 | 0.00 | 75 | 1017.5 |
| 20260502101920 | 2 | 205 | 0.0 | 0.0 | 0.00 | 0.00 | 0.00 | 75 | 1017.5 |
| 20260502101419 | 1 | 207 | 0.0 | 0.0 | 0.00 | 0.00 | 0.00 | 78 | 1017.5 |
| 20260502100917 | 1 | 208 | 0.0 | 0.0 | 0.00 | 0.00 | 0.00 | 79 | 1017.7 |
| 20260502100416 | 1 | 208 | 0.0 | 0.0 | 0.00 | 0.00 | 0.00 | 80 | 1017.7 |
| 20260502091349 | 1 | 224 | 0.0 | 0.0 | 0.00 | 0.00 | 0.00 | 76 | 1017.7 |
| 20260502090847 | 1 | 224 | 0.0 | 0.0 | 0.00 | 0.00 | 0.00 | 76 | 1017.3 |
| 20260502090344 | 1 | 224 | 0.0 | 0.0 | 0.00 | 0.00 | 0.00 | 76 | 1017.2 |
| 20260502071239 | 4 | 231 | 0.0 | 1.6 | 0.00 | 0.00 | 0.00 | 62 | 1017.6 |
| 20260502070737 | 3 | 240 | 0.0 | 0.0 | 0.00 | 0.00 | 0.00 | 64 | 1017.6 |
| 20260502070234 | 3 | 250 | 0.0 | 0.0 | 0.00 | 0.00 | 0.00 | 64 | 1017.6 |
| 20260502065733 | 3 | 264 | 0.0 | 1.6 | 0.00 | 0.00 | 0.00 | 63 | 1017.7 |
| 20260502065230 | 4 | 213 | 0.0 | 0.0 | 0.00 | 0.00 | 0.00 | 63 | 1017.7 |
| 20260502064729 | 4 | 237 | 0.0 | 0.0 | 0.00 | 0.00 | 0.00 | 61 | 1017.8 |
| 20260502064226 | 4 | 223 | 0.0 | 0.0 | 0.00 | 0.00 | 0.00 | 61 | 1017.8 |
| 20260502063723 | 4 | 222 | 0.0 | 0.0 | 0.00 | 0.00 | 0.00 | 62 | 1017.8 |
| 20260502063221 | 5 | 226 | 0.0 | 3.2 | 0.00 | 0.00 | 0.00 | 59 | 1017.8 |
| 20260502062718 | 5 | 226 | 0.0 | 1.6 | 0.00 | 0.00 | 0.00 | 60 | 1017.7 |
| 20260502062216 | 4 | 265 | 0.0 | 0.0 | 0.00 | 0.00 | 0.00 | 61 | 1017.8 |
| 20260502061714 | 5 | 265 | 0.0 | 0.0 | 0.00 | 0.00 | 0.00 | 60 | 1017.8 |
| 20260502061211 | 5 | 247 | 0.0 | 0.0 | 0.00 | 0.00 | 0.00 | 60 | 1017.7 |
| 20260502060706 | 5 | 222 | 0.0 | 0.0 | 0.00 | 0.00 | 0.00 | 60 | 1017.7 |
| 20260502060203 | 5 | 235 | 0.0 | 0.0 | 0.00 | 0.00 | 0.00 | 59 | 1017.8 |
| 20260502055701 | 5 | 270 | 0.0 | 0.0 | 0.00 | 0.00 | 0.00 | 59 | 1017.9 |
| 20260502055158 | 5 | 234 | 0.0 | 1.6 | 0.00 | 0.00 | 0.00 | 59 | 1017.8 |
| 20260502054657 | 4 | 249 | 0.0 | 0.0 | 0.00 | 0.00 | 0.00 | 61 | 1017.9 |
| 20260502054154 | 4 | 231 | 0.0 | 0.0 | 0.00 | 0.00 | 0.00 | 61 | 1017.9 |
| 20260502053651 | 4 | 230 | 0.0 | 1.6 | 0.00 | 0.00 | 0.00 | 61 | 1017.9 |
| 20260502053148 | 4 | 238 | 0.0 | 0.0 | 0.00 | 0.00 | 0.00 | 63 | 1017.9 |
| 20260502052647 | 4 | 238 | 0.0 | 1.6 | 0.00 | 0.00 | 0.00 | 62 | 1018.1 |
| 20260502052144 | 3 | 234 | 0.0 | 0.0 | 0.00 | 0.00 | 0.00 | 65 | 1017.9 |
| 20260502051642 | 3 | 234 | 0.0 | 0.0 | 0.00 | 0.00 | 0.00 | 63 | 1017.9 |
| 20260502051140 | 3 | 234 | 0.0 | 0.0 | 0.00 | 0.00 | 0.00 | 64 | 1017.9 |
| 20260502050636 | 3 | 249 | 0.0 | 1.6 | 0.00 | 0.00 | 0.00 | 62 | 1017.9 |
| 20260502050133 | 3 | 230 | 0.0 | 0.0 | 0.00 | 0.00 | 0.00 | 65 | 1017.8 |
| 20260502045630 | 3 | 230 | 0.0 | 0.0 | 0.00 | 0.00 | 0.00 | 66 | 1017.9 |
| 20260502045127 | 3 | 230 | 0.0 | 0.0 | 0.00 | 0.00 | 0.00 | 66 | 1017.8 |
| 20260502044623 | 3 | 230 | 0.0 | 0.0 | 0.00 | 0.00 | 0.00 | 66 | 1018.0 |
| 20260502044120 | 3 | 230 | 0.0 | 0.0 | 0.00 | 0.00 | 0.00 | 65 | 1017.8 |
| 20260502043618 | 3 | 230 | 0.0 | 0.0 | 0.00 | 0.00 | 0.00 | 65 | 1017.8 |
| 20260502043114 | 4 | 230 | 0.0 | 0.0 | 0.00 | 0.00 | 0.00 | 63 | 1017.9 |
| 20260502042608 | 3 | 230 | 0.0 | 0.0 | 0.00 | 0.00 | 0.00 | 64 | 1017.9 |
| 20260502042106 | 3 | 230 | 0.0 | 0.0 | 0.00 | 0.00 | 0.00 | 64 | 1018.0 |
| 20260502041604 | 3 | 230 | 0.0 | 0.0 | 0.00 | 0.00 | 0.00 | 64 | 1017.9 |
| 20260502041100 | 4 | 230 | 0.0 | 0.0 | 0.00 | 0.00 | 0.00 | 64 | 1017.8 |
| 20260502040557 | 4 | 230 | 0.0 | 0.0 | 0.00 | 0.00 | 0.00 | 65 | 1017.7 |
| 20260502040055 | 5 | 231 | 0.0 | 0.0 | 0.00 | 0.00 | 0.00 | 61 | 1017.8 |
| 20260502035550 | 5 | 231 | 0.0 | 0.0 | 0.00 | 0.00 | 0.00 | 66 | 1017.9 |
| 20260502035048 | 5 | 302 | 0.0 | 0.0 | 0.00 | 0.00 | 0.00 | 61 | 1017.9 |
| 20260502034545 | 5 | 200 | 0.0 | 0.0 | 0.00 | 0.00 | 0.00 | 63 | 1018.0 |
| 20260502034044 | 5 | 200 | 0.0 | 0.0 | 0.00 | 0.00 | 0.00 | 61 | 1018.0 |
| 20260502033542 | 5 | 200 | 0.0 | 0.0 | 0.00 | 0.00 | 0.00 | 63 | 1017.9 |
| 20260502033039 | 5 | 215 | 1.6 | 1.6 | 0.00 | 0.00 | 0.00 | 62 | 1017.9 |
| 20260502032534 | 5 | 216 | 0.0 | 0.0 | 0.00 | 0.00 | 0.00 | 61 | 1017.8 |
| 20260502032031 | 5 | 216 | 0.0 | 0.0 | 0.00 | 0.00 | 0.00 | 59 | 1017.9 |
| 20260502031529 | 5 | 216 | 0.0 | 0.0 | 0.00 | 0.00 | 0.00 | 61 | 1017.9 |
| 20260502031027 | 6 | 216 | 0.0 | 0.0 | 0.00 | 0.00 | 0.00 | 54 | 1017.9 |
| 20260502030526 | 6 | 216 | 0.0 | 0.0 | 0.00 | 0.00 | 0.00 | 55 | 1018.1 |
| 20260502030023 | 6 | 216 | 0.0 | 0.0 | 0.00 | 0.00 | 0.00 | 58 | 1017.8 |
| 20260502025520 | 6 | 216 | 0.0 | 0.0 | 0.00 | 0.00 | 0.00 | 54 | 1018.0 |
| 20260502025018 | 6 | 216 | 0.0 | 0.0 | 0.00 | 0.00 | 0.00 | 56 | 1018.0 |
| 20260502024515 | 6 | 216 | 0.0 | 0.0 | 0.00 | 0.00 | 0.00 | 55 | 1017.8 |
| 20260502024014 | 6 | 276 | 0.0 | 0.0 | 0.00 | 0.00 | 0.00 | 55 | 1018.0 |
| 20260502023511 | 6 | 276 | 0.0 | 0.0 | 0.00 | 0.00 | 0.00 | 51 | 1017.8 |
| 20260502023008 | 6 | 276 | 0.0 | 0.0 | 0.00 | 0.00 | 0.00 | 51 | 1017.9 |
| 20260502022505 | 7 | 276 | 0.0 | 0.0 | 0.00 | 0.00 | 0.00 | 49 | 1017.8 |
| 20260502022002 | 6 | 276 | 0.0 | 0.0 | 0.00 | 0.00 | 0.00 | 50 | 1017.9 |
| 20260502021459 | 6 | 276 | 0.0 | 0.0 | 0.00 | 0.00 | 0.00 | 52 | 1017.8 |
| 20260502020956 | 6 | 276 | 0.0 | 0.0 | 0.00 | 0.00 | 0.00 | 51 | 1017.6 |
| 20260502020454 | 6 | 276 | 0.0 | 0.0 | 0.00 | 0.00 | 0.00 | 50 | 1017.6 |
| 20260502015950 | 7 | 276 | 0.0 | 0.0 | 0.00 | 0.00 | 0.00 | 49 | 1017.6 |
| 20260502015448 | 7 | 276 | 0.0 | 0.0 | 0.00 | 0.00 | 0.00 | 46 | 1017.6 |
| 20260502014944 | 7 | 276 | 0.0 | 0.0 | 0.00 | 0.00 | 0.00 | 44 | 1017.3 |
| 20260502014441 | 8 | 283 | 0.0 | 0.0 | 0.00 | 0.00 | 0.00 | 47 | 1017.6 |
| 20260502013938 | 8 | 283 | 0.0 | 0.0 | 0.00 | 0.00 | 0.00 | 49 | 1017.5 |
| 20260502013433 | 8 | 284 | 0.0 | 0.0 | 0.00 | 0.00 | 0.00 | 47 | 1017.5 |
| 20260502012930 | 8 | 284 | 0.0 | 0.0 | 0.00 | 0.00 | 0.00 | 43 | 1017.3 |
| 20260502012428 | 9 | 284 | 0.0 | 0.0 | 0.00 | 0.00 | 0.00 | 43 | 1017.2 |
| 20260502011925 | 9 | 288 | 0.0 | 0.0 | 0.00 | 0.00 | 0.00 | 41 | 1017.3 |
| 20260502011421 | 9 | 288 | 0.0 | 0.0 | 0.00 | 0.00 | 0.00 | 40 | 1017.2 |
| 20260502010919 | 10 | 295 | 0.0 | 0.0 | 0.00 | 0.00 | 0.00 | 40 | 1017.2 |
| 20260502010415 | 10 | 295 | 0.0 | 0.0 | 0.00 | 0.00 | 0.00 | 37 | 1017.1 |
| 20260502005911 | 10 | 295 | 0.0 | 0.0 | 0.00 | 0.00 | 0.00 | 37 | 1017.2 |
| 20260502005410 | 10 | 295 | 0.0 | 0.0 | 0.00 | 0.00 | 0.00 | 38 | 1017.3 |
| 20260502004907 | 10 | 296 | 0.0 | 0.0 | 0.00 | 0.00 | 0.00 | 38 | 1017.3 |
| 20260502004403 | 10 | 295 | 0.0 | 0.0 | 0.00 | 0.00 | 0.00 | 37 | 1017.5 |